Location: Vallejo Observatory
(38.1221°N, 122.2109°W)
Time: 13:38:04
(UTC-07:00)

Daily predictions for brighter satellites

Satellite Brightness Start Highest point End
(mag) Time Altitude Azimuth Time Altitude Azimuth Time Altitude Azimuth
Cosmos 1802 Rocket 4.1 20:36:15 10° S 20:42:32 80° E 20:48:56 10° N
Cosmos 1980 Rocket 2.5 20:37:25 10° NNW 20:42:57 52° ENE 20:48:27 10° SE
Envisat 3.3 20:38:48 10° S 20:43:51 72° WSW 20:48:57 10° NNW
ERS-2 2.4 20:45:06 10° SSE 20:48:40 52° ENE 20:52:17 10° N
ISS -3.8 20:47:41 10° SW 20:50:57 85° NW 20:54:13 10° NE
Okean 3 3.5 20:49:19 10° S 20:53:34 69° E 20:57:50 10° NNE
Cosmos 1833 Rocket 4.3 20:48:58 10° SW 20:54:14 40° WNW 20:59:32 10° N
Resurs 01 Rocket 1.8 20:51:10 10° SSE 20:55:29 59° ENE 20:59:50 10° N
Thor Agena Rocket 3.6 20:50:25 10° NNE 20:55:43 84° ESE 21:00:56 10° SSW
CENTAUR R/B 3.7 20:53:09 10° SE 20:56:48 17° ESE 21:00:42 10° ENE
Meteor 1-18 Rocket 4.4 20:51:55 10° S 20:57:35 57° E 21:03:22 10° NNE
Abrixas rocket 2.3 20:56:55 10° SW 21:00:02 49° SE 21:03:10 10° ENE
Cosmos 2233 Rocket 4.5 20:54:37 10° SSE 21:00:15 40° E 21:05:57 10° NNE
Cosmos 304 Rocket 3.8 20:56:23 10° S 21:01:07 61° ESE 21:05:53 10° NNE
BREEZE-M DEB (TANK) 3.0 21:01:40 10° NW 21:03:46 37° NE 21:07:05 10° ESE
ATLAS 3B R/B 3.0 21:00:52 10° SW 21:08:07 82° WNW 21:15:07 10° NNE
Cosmos 2084 4.2 21:07:29 10° S 21:11:20 30° ESE 21:15:01 10° NE
Tiangong 2 1.0 21:11:07 10° WSW 21:14:16 88° SSE 21:17:25 10° ENE
GPS 2-04 Rocket1 3.5 21:12:10 10° W 21:16:09 41° SSW 21:19:18 15° SE
Cosmos 1864 Rocket 4.5 21:10:03 10° S 21:16:13 89° E 21:22:23 10° N
Cosmos 1300 Rocket 4.0 21:12:44 10° NNW 21:17:03 62° W 21:21:19 10° S
USA 186 3.6 21:19:01 10° SSW 21:21:50 30° W 21:24:48 10° NNW
Spot 2 Rocket 3.5 21:17:43 10° SSE 21:22:45 85° ENE 21:27:49 10° NNW
Cosmos 468 Rocket 4.0 21:22:46 10° S 21:28:00 66° ESE 21:33:12 10° NNE
Cosmos 1937 Rocket 4.4 21:25:42 10° N 21:30:21 34° ENE 21:33:29 18° ESE
NOAA 11 4.3 21:25:05 10° SSE 21:30:33 83° WSW 21:36:03 10° NNW
Timation 2 Rocket 3.8 21:27:11 10° SSW 21:33:06 72° ESE 21:39:08 10° NNE
Cosmos 2322 Rocket 2.8 21:27:52 10° N 21:33:11 41° ENE 21:36:49 19° ESE
Cosmos 1763 Rocket 3.7 21:32:19 10° S 21:37:25 49° ESE 21:42:31 10° NNE
ARGOS 3.4 21:34:33 17° SE 21:38:31 54° ENE 21:43:47 10° N
ATLAS CENTAUR R/B 2.6 21:35:15 10° NW 21:39:38 44° WSW 21:43:38 13° S
Helios 1B rocket 4.4 21:38:02 10° ENE 21:39:44 13° E 21:39:44 13° E
Cosmos 1975 2.8 21:36:56 10° N 21:40:59 88° W 21:44:05 16° S
SL-16 R/B 2.5 21:35:44 10° NNW 21:41:16 51° ENE 21:44:48 22° SE
Cosmos 841 Rocket 4.1 21:37:35 15° SSE 21:41:17 36° E 21:46:03 10° NE
Shenzhou-11 Module 3.6 21:44:05 10° WNW 21:46:48 31° N 21:49:01 13° ENE
ATLAS CENTAUR R/B 4.1 21:41:21 10° SW 21:47:18 89° NW 22:06:03 10° NE
USA 245 4.2 21:47:05 23° E 21:48:00 27° ENE 21:51:22 10° N
Atlas Centaur 2 2.4 21:47:56 10° WSW 21:50:51 22° S 21:51:07 22° S
Cosmos 1356 4.2 22:00:34 32° E 22:00:34 32° E 22:03:37 10° NNE
SPOT 1/Viking Rocket 4.4 21:59:43 25° ESE 22:01:47 34° ENE 22:06:23 10° N
H-2A R/B 1.9 22:02:53 28° SSE 22:05:30 76° ENE 22:10:31 10° N
Meteor 1-19 Rocket 4.5 21:59:45 10° SSW 22:05:38 76° W 22:11:35 10° N
Cosmos 1455 Rocket 3.3 22:01:41 10° N 22:05:57 52° E 22:07:19 37° SE
ERS-1 Rocket 3.0 22:07:52 32° SSE 22:10:10 68° ENE 22:15:11 10° N
SPOT 5 3.3 22:10:13 33° ESE 22:11:20 39° ENE 22:15:31 10° N
MetOp-B 4.1 22:08:23 26° SSE 22:11:29 89° WSW 22:16:52 10° NNW
Cosmos 1898 Rocket 3.7 22:06:17 10° NNW 22:11:34 70° WSW 22:14:33 26° S
CSL-04 DEB 4.4 22:10:05 37° SSE 22:11:45 86° ENE 22:15:53 10° NNW
Cosmos 1242 Rocket 3.3 22:08:52 10° NNW 22:12:24 49° W 22:14:01 27° SSW
USA 234 4.3 22:06:48 10° NE 22:13:02 48° NW 22:19:16 10° WSW
SL-08 RB Rocket 3.6 22:11:31 33° SSE 22:13:34 88° W 22:18:09 10° NNW
Cosmos 1975 Rocket 4.0 22:09:51 10° SSW 22:14:01 46° W 22:18:11 10° N
Cosmos 1814 Rocket 4.1 22:10:21 10° SSW 22:15:35 78° WNW 22:20:55 10° NNE
DMSP B5D2-2 4.1 22:11:35 10° NNE 22:16:50 60° E 22:19:10 32° SSE
Cosmos 1666 4.2 22:14:54 10° NNW 22:18:25 33° W 22:20:50 17° SSW
NOSS 3-2 (C) 4.4 22:14:28 10° SW 22:20:10 49° NW 22:26:29 10° NNE
CZ-4C R/B 4.3 22:17:54 10° NNW 22:23:43 26° NE 22:28:52 14° E
Cosmos 2360 Rocket 2.7 22:18:50 10° N 22:24:17 47° ENE 22:26:09 35° ESE
BREEZE M DEB (TANK) 2.7 22:16:56 10° NW 22:25:31 78° NNE 22:26:29 49° ESE
Cosmos 1743 4.4 22:22:24 10° NNW 22:25:45 29° W 22:27:56 17° SW
Terra 2.9 22:25:19 27° E 22:26:05 29° ENE 22:30:10 10° N
Cosmos 1980 Rocket 4.3 22:22:30 10° NW 22:26:28 20° W 22:30:28 10° SW
Lacrosse 5 rocket 3.2 22:23:57 10° NNW 22:27:24 23° NE 22:28:53 19° ENE
ISS -0.6 22:25:52 10° WNW 22:27:51 15° NNW 22:29:50 10° NNE
Cosmos 2219 Rocket 4.1 22:25:50 10° NNE 22:29:10 16° NE 22:31:19 13° ENE
Resurs 01 Rocket 4.4 22:31:05 10° WSW 22:32:18 11° W 22:33:32 10° WNW
Cosmos 1544 Rocket 3.6 22:28:37 10° N 22:33:02 74° W 22:34:18 45° SSW
Meteor 1-23 Rocket 4.1 22:31:09 35° S 22:33:33 77° E 22:39:07 10° NNE
Cosmos 990 Rocket 4.3 22:28:29 10° NNW 22:33:38 61° WSW 22:35:41 35° S
CZ-2C R/B 4.1 22:29:50 10° NE 22:33:39 22° E 22:33:39 22° E
Meteor 2-9 Rocket 4.4 22:29:22 10° NNW 22:34:39 65° W 22:37:09 31° SSW
Abrixas rocket 4.5 22:33:50 10° W 22:36:35 25° NNW 22:39:21 10° NE
Helios 1A 2.8 22:36:12 66° SSE 22:36:45 84° ENE 22:40:55 10° N
Meteor 2-20 Rocket 4.5 22:32:58 10° N 22:39:06 81° W 22:41:52 35° S
Aureole 2 Rocket 3.4 22:39:13 10° NNW 22:41:12 38° NNW 22:41:12 38° NNW
Cosmos 2333 Rocket 4.0 22:39:48 10° N 22:43:44 19° NE 22:45:38 16° ENE
Cosmos 2150 Rocket 4.1 22:38:25 10° NNW 22:43:47 72° WSW 22:45:19 46° S
CENTAUR R/B 2.7 22:40:37 10° SW 22:46:28 70° NW 22:53:14 10° NNE
Cosmos 1536 Rocket 3.7 22:46:13 50° SSW 22:47:16 71° W 22:51:43 10° N
COSMOS 2428 3.8 22:42:18 10° N 22:47:17 30° ENE 22:48:38 27° E
SJ 16-02 1.7 22:44:44 10° N 22:49:04 51° ENE 22:49:06 51° ENE
Tiangong 2 2.6 22:48:16 10° WNW 22:51:07 34° N 22:51:07 34° N
Cosmos 1340 Rocket 4.1 22:49:39 25° SW 22:51:21 37° WNW 22:55:10 10° N
Spot 1 4.0 22:53:40 64° ENE 22:53:40 64° ENE 22:57:31 10° N
Nimbus 7 Rocket 4.4 22:51:06 10° NNE 22:56:53 57° ESE 22:57:41 53° SE
Cosmos 1092 Rocket 4.3 22:52:20 10° N 22:58:31 51° E 22:59:40 45° ESE
Okean 2 3.4 23:00:24 75° NNE 23:00:24 75° NNE 23:04:15 10° N
Nadezhda 4 Rocket 3.9 22:56:46 10° N 23:03:06 82° E 23:04:40 54° SSE
Cosmos 2297 Rocket 4.3 23:11:57 12° ENE 23:11:57 12° ENE 23:12:51 10° ENE
Cosmos 1356 Rocket 3.7 23:11:50 66° N 23:11:50 66° N 23:15:33 10° N
Cosmos 2322 3.5 23:06:44 10° NNW 23:12:30 86° ENE 23:13:13 70° SSE
Cosmos 2227 Rocket 4.1 23:14:49 15° ENE 23:14:49 15° ENE 23:16:30 10° ENE
CZ-2C R/B 3.1 23:12:46 63° E 23:13:10 65° ENE 23:18:40 10° N
Helios 1B rocket 3.4 23:11:38 10° N 23:15:34 43° WNW 23:16:05 41° W
Cosmos 540 Rocket 4.2 23:14:12 29° SW 23:16:29 49° WNW 23:21:31 10° N
Cosmos 2322 Rocket 3.7 23:12:28 10° NW 23:16:55 25° WSW 23:18:39 21° SW
CARTOSAT-1 3.9 23:19:49 61° WNW 23:19:49 61° WNW 23:23:45 10° NNW
IGS 5A 4.0 23:20:22 56° WNW 23:20:22 56° WNW 23:23:59 10° NNW
Cosmos 2237 Rocket 3.9 23:16:35 10° N 23:20:45 20° NE 23:22:05 19° ENE
Cosmos 1066 Rocket 3.9 23:21:12 80° S 23:21:30 89° E 23:26:57 10° N
SL-16 R/B 4.0 23:20:54 10° NW 23:24:55 20° W 23:26:42 17° SW
Cosmos 2026 Rocket 4.1 23:24:20 10° N 23:30:24 56° E 23:30:44 56° E
Cosmos 2279 Rocket 4.4 23:31:34 46° E 23:31:34 46° E 23:37:23 10° NNE
Meteor 1-22 Rocket 4.4 23:26:39 10° N 23:31:37 54° ENE 23:31:37 54° ENE
Cosmos 2142 Rocket 4.3 23:37:29 73° ESE 23:37:48 76° E 23:44:00 10° N
Cosmos 1025 Rocket 4.1 23:39:29 40° WNW 23:39:29 40° WNW 23:43:26 10° N
Cosmos 372 Rocket 4.3 23:35:17 10° NNW 23:40:02 55° W 23:40:02 55° W
Cosmos 2219 3.1 23:40:36 83° E 23:40:36 83° E 23:46:17 10° NNE
Cosmos 2237 4.5 23:35:01 10° NNW 23:40:37 56° WSW 23:40:47 55° WSW
Cosmos 1606 Rocket 4.3 23:36:16 10° N 23:39:36 49° NNE 23:39:36 49° NNE
Cosmos 1627 Rocket 4.3 23:46:54 10° N 23:53:06 86° W 23:53:20 82° SSW
